Dallas Redbird, TX

8:10 AM CDT on May 25, 2018 (GMT -0500)
Redbird

Weather History for KRBD - October, 2013

Change the Weather History Date:

Wednesday, October 23, 2013

  Actual Average Record
Temperature  
Mean Temperature 68 °F -  
Max Temperature 82 °F 73 °F 89 °F (2003)
Min Temperature 55 °F 54 °F 39 °F (2006)
Cooling Degree Days 4    
Growing Degree Days 18 (Base 50)    
Moisture  
Dew Point 45 °F    
Average Humidity 44    
Maximum Humidity 64    
Minimum Humidity 24    
Precipitation  
Precipitation 0.00 in - - ()
Sea Level Pressure  
Sea Level Pressure 30.07 in    
Wind  
Wind Speed 5 mph (WSW)    
Max Wind Speed 8 mph    
Max Gust Speed -    
Visibility 10 miles    
Events      
Averages and records for this station are not official NWS values.
T = Trace of Precipitation, MM = Missing Value Source: NWS Daily Summary

Daily Weather History Graph

Daily Weather History Graph

Search for Another Location

Airport or City:

Astronomy

Oct. 23, 2013 Rise Set
Actual Time 7:37 AM CDT 6:45 PM CDT
Civil Twilight 7:12 AM CDT 7:10 PM CDT
Nautical Twilight 6:43 AM CDT 7:39 PM CDT
Astronomical Twilight 6:15 AM CDT 8:07 PM CDT
Moon 10:25 PM CDT (10/23) 11:47 AM CDT (10/23)
Length of Visible Light 11h 57m
Length of Day
11h 07m
Waning Gibbous, 79% of the Moon is Illuminated
Oct 23
Waning Gibbous
Oct 26
Last Quarter
Nov 3
New
Nov 9
First Quarter
Nov 17
Full

Hourly Weather History & Observations

Time (CDT) Temp. Dew Point Humidity Pressure Visibility Wind Dir Wind Speed Gust Speed Precip Events Conditions
12:53 AM 62.1 °F 42.1 °F 48% 30.07 in 10.0 mi WSW 6.9 mph - N/A   Clear
1:53 AM 60.1 °F 42.1 °F 51% 30.07 in 10.0 mi West 6.9 mph - N/A   Clear
2:53 AM 60.1 °F 43.0 °F 53% 30.08 in 10.0 mi West 5.8 mph - N/A   Clear
3:53 AM 61.0 °F 42.1 °F 50% 30.08 in 10.0 mi West 8.1 mph - N/A   Clear
4:53 AM 55.9 °F 43.0 °F 62% 30.06 in 10.0 mi WSW 4.6 mph - N/A   Clear
5:53 AM 57.9 °F 42.1 °F 56% 30.07 in 10.0 mi West 5.8 mph - N/A   Clear
6:53 AM 57.0 °F 42.1 °F 57% 30.09 in 10.0 mi West 4.6 mph - N/A   Clear
7:53 AM 55.0 °F 43.0 °F 64% 30.10 in 10.0 mi Calm Calm - N/A   Clear
8:53 AM 60.1 °F 46.0 °F 60% 30.12 in 10.0 mi West 3.5 mph - N/A   Clear
9:53 AM 66.9 °F 46.0 °F 47% 30.12 in 10.0 mi NNW 3.5 mph - N/A   Clear
10:53 AM 72.0 °F 46.0 °F 40% 30.12 in 10.0 mi NW 3.5 mph - N/A   Clear
11:53 AM 73.9 °F 44.1 °F 34% 30.11 in 10.0 mi Calm Calm - N/A   Clear
12:53 PM 77.0 °F 42.1 °F 29% 30.10 in 10.0 mi NNW 4.6 mph - N/A   Clear
1:53 PM 80.1 °F 46.0 °F 30% 30.07 in 10.0 mi NE 4.6 mph - N/A   Clear
2:53 PM 82.0 °F 43.0 °F 25% 30.04 in 10.0 mi Calm Calm - N/A   Clear
3:53 PM 82.0 °F 42.1 °F 24% 30.04 in 10.0 mi Variable 3.5 mph - N/A   Clear
4:53 PM 81.0 °F 45.0 °F 28% 30.03 in 10.0 mi Variable 4.6 mph - N/A   Clear
5:53 PM 80.1 °F 48.0 °F 32% 30.03 in 10.0 mi South 3.5 mph - N/A   Clear
6:53 PM 75.9 °F 46.9 °F 36% 30.03 in 10.0 mi South 4.6 mph - N/A   Clear
7:53 PM 72.0 °F 48.0 °F 43% 30.05 in 10.0 mi South 3.5 mph - N/A   Clear
8:53 PM 71.1 °F 48.9 °F 45% 30.05 in 10.0 mi South 4.6 mph - N/A   Clear
9:53 PM 69.1 °F 48.0 °F 47% 30.06 in 10.0 mi SSW 4.6 mph - N/A   Clear
10:53 PM 66.9 °F 48.9 °F 52% 30.07 in 10.0 mi SSW 4.6 mph - N/A   Clear
11:53 PM 64.9 °F 46.9 °F 52% 30.06 in 10.0 mi SSW 4.6 mph - N/A   Clear